SCP
0 0 0 0 0 0 0 0 0 0 0 0 0 0 0 0 0 0 0 0 0 0 0 0 0 0 0 0 0 0 0 0 0 0 0 0 0 0 0 0 0 0 0 0 0 0 0 0 0 0 0 -0 -0 -0
0 0 0 0 0 0 0 0 0 0 0 0 0 0 0 0 0 0 0 0 0 0 0 0 0 0 0 0 0 0 0 0 0 0 0 0 0 -0 -0 -0 0 0 0 0 0 0 0 0 0 0 0 -0 0 0
0 0 0 0 0 0 0 0 0 0 0 0 0 0 0 0 0 0 0 0 0 0 0 0 0 0 0 0 0 0 0 0 0 0 0 0 0 0 0 0 0 0 0 0 0 0 0 0 0 0 0 0 -0 0
0 0 0 0 0 0 0 0 0 0 0 0 0 0 0 0 0 0 0 0 0 0 0 0 0 0 0 0 0 0 0 0 0 0 0 0 0 0 0 0 0 0 0 0 0 0 -0 0 0 0 0 0 0 -0
0 0 0 0 0 0 0 0 0 0 0 0 0 0 0 0 0 0 0 0 0 0 0 0 -0 -0 0 0 0 0 0 0 0 0 0 0 0 0 0 0 0 0 0 0 0 0 0 0 0 0 0 0 0 -0
0 0 0 0 0 0 0 0 0 0 0 0 0 0 0 0 0 0 0 0 0 0 0 0 0 -0 0 0 0 0 0 0 0 0 0 0 0 0 -0 0 0 0 0 0 0 0 0 0 0 0 0 -0 -0 -0
0 0 0 0 0 0 0 0 0 0 0 0 0 0 0 0 0 0 0 0 0 0 0 0 0 0 0 0 0 0 0 0 0 0 0 0 0 0 0 0 -0 -0 0 0 0 0 0 0 0 0 0 -0 0 -0
0 0 0 0 0 0 0 0 0 0 0 0 0 0 0 0 0 0 0 0 0 0 0 0 0 0 0 0 0 0 0 0 -0 0 0 0 0 0 0 0 -0 0 0 0 0 0 0 0 0 0 0 -0 -0 0
0 0 0 0 0 0 0 0 0 0 0 0 0 0 0 0 0 0 0 0 0 0 0 0 0 0 0 0 0 0 0 -0 -0 0 0 0 0 0 0 0 -0 0 0 0 0 0 0 0 -0 0 -0 -0 -0 -0
0 0 0 0 0 0 0 0 0 0 0 0 0 0 0 0 0 0 0 0 0 0 0 0 0 0 0 -0 -0 0 0 -0 0 0 0 -0 -0 0 0 0 0 0 0 0 -0 0 0 -0 -0 0 0 -0 -0 -0
0 0 0 0 0 0 0 0 0 0 0 0 0 0 0 0 0 0 0 0 0 0 0 0 0 0 0 0 -0 0 -0 0 0 -0 -0 -0 0 -0 -0 -0 0 0 0 0 -0 0 -0 0 0 0 0 -0 -0 -0
0 0 0 0 0 0 0 0 0 0 0 0 0 0 0 0 0 0 0 0 0 0 0 0 0 0 0 0 -0 -0 -0 0 0 0 0 0 -0 -0 -0 -0 -0 0 0 0 -0 0 -0 0 0 0 0 0 0 0
0 0 0 0 0 0 0 0 0 0 0 0 0 0 0 0 0 0 0 0 0 0 0 0 0 0 -0 -0 -0 -0 -0 -0 0 -0 -0 0 -0 -0 -0 -0 -0 0 0 0 -0 -0 0 0 0 0 0 0 0 0
0 0 -0 0 0 -0 0 0 0 0 0 0 0 0 0 0 0 0 0 0 0 0 0 0 0 0 -0 -0 -0 -0 -0 0 0 0 0 0 -0 -0 -0 -0 -0 -0 0 0 0 0 0 0 0 0 0 0 0 0
-0 0 -0 -0 -0 -0 0 0 0 0 0 0 0 0 0 0 0 0 0 0 0 0 0 0 0 -0 -0 -0 -0 -0 -0 -0 0 0 0 -0 -0 -0 -0 -0 -0 -0 0 0 0 0 -0 -0 0 -0 0 0 0 0
-0 0 0 -0 -0 0 0 0 0 0 0 0 0 0 0 0 0 0 0 0 0 -0 0 0 0 0 -0 -0 -0 -0 -0 -0 0 0 -0 -0 -0 -0 -0 -0 -0 -0 0 0 -0 -0 0 -0 0 0 0 0 0 0
0 0 -0 -0 -0 0 0 0 0 0 0 0 0 0 0 0 0 0 0 0 0 0 0 0 0 0 -0 -0 -0 -0 -0 0 0 0 0 -0 -0 -0 -0 -0 -0 -0 -0 0 -0 -0 -0 0 0 0 0 0 0 0
0 0 -0 -0 0 0 0 0 0 0 0 0 0 0 0 0 0 0 0 0 0 0 0 0 0 0 0 0 0 -0 -0 0 0 0 0 0 -0 -0 -0 -0 -0 -0 -0 0 -0 -0 -0 0 0 0 0 0 0 0
0 0 -0 -0 0 0 0 0 0 0 0 0 0 0 0 0 0 0 0 0 0 0 0 0 0 0 0 -0 -0 -0 0 0 0 0 0 0 0 0 0 -0 -0 -0 -0 -0 -0 -0 -0 -0 -0 0 0 -0 0 0
-0 -0 -0 0 0 0 0 0 0 0 0 0 0 0 0 0 0 0 0 0 0 0 0 0 0 -0 -0 -0 -0 0 0 0 0 0 0 0 0 0 0 -0 -0 -0 -0 -0 0 -0 -0 -0 -0 -0 -0 0 -0 0
0 0 0 0 0 0 0 0 0 0 0 0 0 0 0 0 0 0 0 0 0 0 0 0 0 0 0 0 0 0 0 0 -0 -0 0 0 0 0 0 0 0 0 -0 -0 -0 0 -0 -0 -0 -0 -0 -0 -0 -0
0 0 0 0 0 0 0 0 0 0 0 0 0 0 0 0 0 0 0 0 0 0 0 0 0 0 0 0 0 0 0 0 0 -0 -0 -0 0 0 0 0 0 0 0 -0 -0 -0 -0 -0 -0 -0 -0 -0 -0 -0
0 0 0 0 0 0 0 0 0 0 0 0 0 0 0 0 0 0 0 0 0 0 0 0 0 0 0 0 0 0 0 0 0 0 0 0 0 0 0 0 0 0 0 0 0 0 0 -0 -0 0 -0 0 -0 -0
0 0 0 0 0 0 0 0 0 0 0 0 0 0 0 0 0 0 0 0 0 0 0 0 0 0 0 0 -0 0 0 0 -0 -0 -0 0 0 0 0 0 0 0 0 0 0 0 0 -0 -0 -0 -0 0 -0 0
0 0 0 0 0 0 0 0 0 0 0 0 0 0 0 0 0 0 0 0 0 0 0 0 0 0 0 0 0 0 0 0 0 0 -0 -0 -0 0 0 0 0 0 0 0 0 -0 0 0 -0 -0 0 0 0 -0
0 0 0 0 0 0 0 0 0 0 0 0 0 0 0 0 0 0 0 0 0 0 0 0 0 0 0 0 0 0 0 0 0 0 -0 -0 -0 -0 0 0 0 0 0 0 0 0 0 -0 -0 -0 -0 -0 0 -0
0 0 0 0 0 0 0 0 0 0 0 0 0 0 0 0 0 0 0 0 0 0 0 0 0 0 0 0 0 0 0 0 0 0 -0 -0 -0 -0 0 0 0 0 0 0 0 0 0 0 0 0 0 0 -0 -0
0 0 0 0 0 0 0 0 0 0 0 0 0 0 0 0 0 0 0 0 0 0 0 0 0 0 0 0 0 0 0 0 0 0 0 0 0 -0 0 0 -0 0 0 0 0 0 0 0 0 0 0 0 0 -0
0 0 0 0 0 0 0 0 0 0 0 0 0 0 0 0 0 0 0 0 0 0 0 0 0 0 0 0 0 0 0 0 0 0 0 0 0 0 0 0 0 0 -0 0 0 0 0 0 0 0 0 0 0 0
0 0 0 0 0 0 0 0 0 0 0 0 0 0 0 0 0 0 0 0 0 0 0 0 0 0 0 0 0 0 0 -0 -0 -0 -0 -0 -0 0 0 0 0 0 0 0 0 0 0 0 0 0 0 0 0 0
0 0 0 0 0 0 0 0 0 0 0 0 0 0 0 0 0 0 0 0 0 0 0 0 0 0 0 0 0 0 0 0 0 0 -0 -0 0 0 0 0 0 -0 -0 -0 0 0 0 0 0 0 0 0 0 0
0 0 0 0 0 0 0 0 0 0 0 0 0 0 0 0 0 0 0 0 0 0 0 0 0 0 0 0 0 0 0 0 0 -0 0 0 0 0 0 0 -0 -0 -0 -0 -0 -0 0 0 0 0 0 0 0 0
0 0 0 0 0 0 0 0 0 0 0 0 0 0 0 0 0 0 0 0 0 0 0 0 0 0 0 0 0 0 0 0 0 0 -0 -0 -0 -0 -0 0 0 -0 -0 -0 -0 0 0 0 0 0 0 0 0 0
Wind_Speed_500mb
63 55 53 51 49 43 44 41 38 35 36 34 33 37 38 37 33 21 20 15 12 14 43 24 18 23 18 11 6 9 16 3 7 4 3 4 5 5 7 3 9 2 3 5 6 10 13 10 4 10 9 47 41 47
80 63 50 51 53 45 45 41 37 36 35 35 31 35 36 35 29 22 23 19 26 25 40 67 55 41 40 33 31 12 8 3 5 4 2 3 5 5 5 6 6 3 8 5 13 10 14 17 33 57 55 51 42 55
76 67 54 54 54 48 45 36 38 37 34 34 30 34 35 34 26 20 27 25 23 22 35 15 1 12 28 23 22 18 16 19 11 12 4 4 8 4 5 7 5 7 3 7 8 11 20 45 61 60 56 61 79 63
68 74 70 66 57 49 48 34 39 36 34 32 29 35 34 33 24 26 27 25 14 12 10 15 18 8 6 11 21 45 51 13 15 13 7 5 5 9 5 8 5 13 7 9 12 20 32 44 49 60 77 70 61 62
75 74 70 74 63 47 47 44 39 38 35 27 29 34 34 30 26 24 17 5 11 11 8 27 30 4 11 24 24 24 42 56 27 7 7 4 7 6 6 4 7 6 10 5 9 44 50 49 69 71 61 59 67 62
81 70 71 73 70 48 46 49 37 37 31 26 28 33 32 29 26 15 7 6 4 10 9 7 18 14 31 35 24 16 27 40 25 14 10 11 10 5 5 5 9 25 33 43 30 52 71 81 72 44 61 72 72 62
65 85 71 67 77 64 44 48 44 26 28 28 28 29 31 28 21 9 7 5 11 6 6 12 14 11 34 33 23 5 7 18 18 10 10 9 13 12 4 5 36 72 76 76 64 53 41 36 47 69 74 77 55 77
56 72 66 66 74 53 46 43 42 22 31 32 23 27 27 26 20 6 8 8 13 11 6 5 8 20 20 16 13 7 5 14 17 9 6 2 6 2 4 39 71 71 71 61 69 69 63 56 76 78 56 73 58 60
49 69 66 59 69 56 46 43 39 26 35 29 17 17 8 5 9 9 5 5 8 9 7 3 5 8 19 14 12 9 6 4 4 4 4 7 3 7 22 45 63 72 54 69 73 63 60 68 77 61 72 59 55 57
47 65 66 58 61 65 48 42 36 28 35 14 10 7 8 9 12 5 5 7 11 8 9 7 7 8 10 8 9 11 5 4 4 2 9 3 5 26 43 61 56 73 75 68 47 50 68 77 74 59 67 58 51 51
42 59 58 63 59 66 45 37 37 33 18 7 11 9 13 12 7 7 5 5 7 5 9 11 16 9 16 5 6 7 4 5 4 3 2 4 5 36 82 83 80 75 70 64 47 62 62 67 60 66 61 55 47 48
44 64 68 60 54 42 36 40 33 26 16 9 7 9 13 9 6 5 5 6 7 7 8 10 12 16 12 7 6 7 5 4 3 15 4 4 8 56 70 79 79 79 76 65 57 60 72 65 57 63 58 57 50 43
42 58 58 51 49 39 38 35 28 20 15 11 8 8 6 8 3 7 8 3 2 6 7 10 8 7 5 3 6 4 6 6 13 7 5 3 40 62 78 75 86 76 72 76 70 68 77 63 55 53 54 55 48 40
46 61 56 49 34 40 38 27 24 25 12 9 9 5 8 6 7 7 8 7 6 9 20 21 8 3 7 8 3 4 6 4 5 8 7 11 59 68 83 81 80 81 82 80 71 70 73 66 60 53 53 50 49 42
49 54 43 29 39 35 29 27 34 24 11 8 8 7 9 7 4 12 8 4 4 10 17 1 3 6 6 2 5 5 11 7 6 5 6 47 54 68 72 78 82 78 77 76 68 72 68 67 63 58 60 56 59 49
59 41 45 36 37 29 33 38 25 20 8 8 9 4 5 6 3 7 7 6 7 14 3 4 4 6 7 3 9 8 6 4 6 11 40 59 61 66 69 75 74 72 68 59 62 68 64 63 66 61 55 58 64 63
63 45 47 38 31 35 43 29 17 9 8 6 8 15 7 7 8 6 3 4 12 6 4 6 7 5 4 6 5 4 4 5 28 42 51 45 52 60 65 67 66 63 58 50 57 67 61 56 59 59 58 60 64 66
55 44 37 44 44 54 38 12 10 8 10 16 7 16 16 8 10 6 1 8 1 6 5 5 9 6 4 5 2 3 7 29 34 43 43 42 48 45 53 59 60 59 52 45 46 58 57 58 62 61 56 58 62 68
32 37 43 47 54 30 14 15 9 7 16 7 9 21 16 15 15 12 8 14 16 18 17 7 7 4 4 3 3 9 23 33 40 45 40 41 39 44 50 57 57 54 47 43 36 46 51 46 48 53 53 54 59 62
25 39 49 63 37 11 8 8 12 7 9 11 15 22 18 13 16 13 13 12 10 8 9 5 4 7 6 4 3 12 26 36 37 39 37 41 45 43 46 52 55 50 46 39 30 31 41 43 46 48 48 48 51 53
55 60 64 43 11 5 7 8 11 8 9 11 25 26 15 23 11 5 7 7 8 6 5 7 12 9 5 6 7 17 28 31 29 28 34 41 45 44 46 48 50 48 46 43 37 30 33 37 39 42 47 47 45 44
64 59 48 26 7 3 5 10 5 8 9 18 26 17 13 11 11 8 11 7 6 6 11 14 14 9 9 7 10 21 31 28 21 22 29 35 43 43 45 46 47 49 47 42 34 27 26 24 25 29 37 41 39 39
63 47 27 8 7 8 6 11 8 10 7 17 18 10 6 7 12 19 7 4 7 13 18 17 16 12 7 4 7 19 31 34 27 26 33 34 36 40 40 39 37 43 47 40 29 25 22 19 21 24 25 21 28 31
47 18 11 12 16 9 7 8 9 8 8 8 8 8 8 12 21 5 4 8 16 22 21 17 17 16 8 2 7 22 31 34 29 24 30 37 37 38 39 37 35 36 43 38 31 14 19 14 15 22 21 20 22 27
13 11 10 11 13 8 7 7 6 5 7 7 8 6 6 13 5 5 7 12 35 32 27 21 19 15 10 5 3 17 27 33 34 29 32 36 37 42 42 37 36 40 45 40 37 31 17 18 14 15 15 14 18 21
7 16 14 17 11 9 10 8 11 10 7 6 5 14 10 6 6 7 7 31 47 42 36 30 27 18 10 5 3 16 27 31 30 27 26 34 36 43 47 50 50 42 43 45 45 37 31 16 15 12 8 8 11 13
6 10 10 13 9 6 5 5 7 7 8 8 7 6 6 6 9 6 11 33 45 40 30 27 23 16 6 7 3 14 22 27 29 28 20 27 28 35 41 45 48 46 40 39 40 40 32 26 14 7 2 9 7 7
9 6 7 13 10 10 4 6 8 9 8 14 20 9 15 7 7 17 15 33 35 35 33 29 20 12 11 6 5 13 18 22 22 21 8 16 22 31 38 40 40 43 36 35 40 39 31 25 21 14 11 14 18 12
7 7 10 3 7 8 9 9 8 7 15 20 8 6 8 7 19 17 33 38 40 39 34 29 28 21 14 5 4 13 21 27 31 32 34 38 41 43 45 45 44 44 42 36 37 40 30 28 28 18 21 22 26 25
7 19 11 8 6 9 7 7 13 20 18 24 23 22 20 22 26 33 40 41 39 31 24 19 18 15 8 1 7 15 22 28 33 37 40 42 44 44 46 46 47 47 47 41 39 42 37 28 21 21 20 30 34 40
9 26 7 5 3 4 13 22 26 33 23 18 22 38 31 29 37 34 32 31 28 25 25 25 21 15 9 4 8 13 18 22 30 34 36 36 37 38 40 42 43 44 46 46 43 42 46 43 23 17 23 32 43 44
16 14 9 6 3 25 24 8 9 10 10 12 11 18 31 17 11 26 34 33 29 26 23 21 20 16 10 4 4 9 16 25 32 35 37 38 37 36 37 38 39 41 42 44 44 40 43 46 38 20 19 32 46 53
23 17 14 11 7 8 7 13 8 8 11 8 10 19 10 9 9 14 31 33 24 21 21 18 14 9 5 2 5 12 20 27 31 34 35 35 36 35 35 35 36 38 40 42 43 41 38 41 44 24 15 21 35 52
Wind_Direction_500mb
254 258 270 275 275 280 284 287 297 300 305 308 321 328 329 330 331 338 321 309 298 274 284 265 250 246 246 227 195 301 337 263 346 14 330 325 309 352 293 318 326 312 251 209 211 229 268 178 131 188 246 305 310 311
256 251 259 267 273 273 276 284 291 294 299 301 313 322 325 325 329 315 309 303 297 277 273 296 293 277 257 259 257 235 240 236 248 64 325 315 311 320 283 289 283 300 180 221 199 234 274 278 268 290 302 288 290 303
258 251 248 257 265 269 266 277 287 288 294 295 306 318 320 321 327 306 300 302 302 292 305 300 125 303 294 278 253 224 239 222 223 219 285 248 257 256 283 262 300 300 229 237 345 251 264 286 295 293 306 294 300 296
258 252 236 243 249 267 266 267 282 286 289 290 306 312 317 317 322 312 305 307 292 288 293 284 318 343 354 325 252 242 243 231 234 212 241 246 240 197 265 270 224 267 295 257 256 280 307 286 285 284 292 298 295 302
252 257 249 240 236 259 261 261 272 284 282 288 298 308 313 313 316 315 311 276 255 244 288 290 312 206 328 336 309 272 237 235 239 238 238 246 237 239 244 240 244 216 234 272 276 290 286 282 294 307 305 302 300 291
252 255 264 243 229 237 258 259 251 275 279 284 296 302 307 309 308 324 252 224 306 202 309 294 315 285 340 341 327 296 240 223 210 206 223 225 225 159 262 250 239 296 301 283 272 288 292 291 300 309 311 309 304 293
255 249 246 240 232 229 248 253 241 267 277 280 285 300 302 296 286 265 266 284 272 7 291 294 297 307 333 345 349 357 172 196 202 236 243 216 204 207 249 275 335 323 318 320 320 307 302 304 305 319 315 313 312 309
255 245 239 244 234 225 241 244 240 259 269 277 285 297 293 279 282 255 173 256 271 271 266 289 285 324 342 321 323 315 221 214 209 238 239 227 134 257 286 331 322 319 322 326 329 327 321 318 319 319 317 324 319 315
247 240 234 248 234 223 237 238 238 247 269 275 296 293 252 193 179 170 237 268 214 227 300 291 301 294 329 314 297 297 286 261 228 244 219 122 91 46 314 309 313 316 311 301 323 324 328 324 319 321 329 332 326 324
239 233 232 238 229 231 228 233 235 251 270 264 256 217 212 185 177 207 171 168 197 213 223 251 251 265 304 321 303 320 320 284 269 218 112 89 105 350 335 333 333 339 343 337 323 328 333 329 325 330 336 336 332 330
233 223 233 234 232 231 226 233 231 257 248 200 196 213 186 178 202 199 189 221 172 234 218 241 240 253 292 213 274 259 297 269 270 62 323 87 14 343 341 339 341 344 353 348 344 342 339 329 333 331 341 344 350 353
223 223 224 228 235 230 210 225 235 240 165 198 193 174 170 181 182 191 193 165 209 229 213 218 276 254 293 251 268 282 295 256 312 345 48 49 357 331 340 338 339 348 359 354 351 348 347 341 339 344 353 356 355 4
216 218 222 225 234 213 214 221 238 173 171 171 178 161 171 177 167 204 188 211 276 219 244 268 303 287 287 323 293 317 301 8 324 17 39 60 334 335 342 342 346 357 1 357 350 352 351 350 350 356 0 2 9 20
207 210 212 213 216 200 209 227 181 161 163 176 165 176 195 191 235 185 170 189 221 251 296 307 281 327 2 2 320 323 343 325 51 27 357 342 332 339 337 342 346 347 351 356 351 355 357 3 4 8 15 23 33 22
195 204 201 201 195 212 208 195 157 172 167 182 178 215 204 225 161 153 174 217 254 304 330 88 72 51 14 7 11 12 16 34 35 359 289 322 334 333 334 340 343 348 350 357 354 360 5 11 19 15 24 34 41 44
192 177 186 196 196 193 189 150 167 166 191 200 220 234 186 120 113 171 211 276 329 336 15 64 79 61 18 40 46 24 73 3 296 314 322 328 331 334 337 342 347 349 355 4 1 3 11 16 21 27 31 33 42 48
175 177 192 181 181 178 144 151 154 187 190 214 237 207 176 141 161 167 259 332 324 345 89 78 65 57 28 55 52 75 162 245 324 323 327 326 329 337 338 347 355 358 1 9 3 6 13 20 29 34 38 40 47 50
184 193 190 178 178 147 154 149 163 188 231 224 207 186 186 167 141 129 107 340 13 105 96 111 124 65 91 138 234 278 333 333 337 332 331 332 335 346 347 353 359 1 6 10 6 6 13 21 27 31 35 43 46 50
188 184 180 179 154 135 151 183 186 224 224 205 193 148 136 126 118 123 89 73 102 106 114 80 76 126 200 133 72 343 342 345 332 338 346 343 352 354 352 358 2 5 8 14 7 15 14 25 30 28 33 38 46 47
171 164 168 144 140 126 139 168 195 233 198 184 167 155 135 135 130 110 92 138 128 82 65 66 136 150 136 106 6 349 351 340 336 333 337 341 357 357 359 360 1 4 6 10 12 18 24 25 29 28 31 37 42 46
150 143 144 155 132 115 177 178 195 213 168 159 157 139 127 141 143 124 95 87 79 72 111 132 132 127 91 78 28 4 345 347 344 339 341 339 349 352 360 360 1 10 11 8 6 17 26 24 24 27 31 36 39 45
144 149 159 155 128 266 250 206 211 177 171 155 145 138 141 160 153 143 128 71 93 126 141 152 151 150 111 75 33 2 358 358 355 355 360 356 358 2 2 2 1 9 13 13 18 15 20 13 16 18 23 31 35 43
142 144 140 121 196 222 254 190 195 186 144 173 144 111 131 132 150 147 84 114 141 148 146 146 154 160 129 59 333 359 7 11 13 9 358 356 11 10 8 10 10 8 6 15 20 23 6 6 2 7 9 18 32 51
134 137 154 191 210 213 192 199 193 175 133 147 152 128 139 137 151 111 139 188 167 161 162 163 170 158 153 294 346 8 11 14 16 11 3 1 8 8 5 11 17 13 8 10 17 6 340 356 3 2 11 14 29 45
124 182 188 205 200 184 194 175 182 167 167 169 140 133 151 148 111 166 188 196 177 175 172 168 170 174 188 217 347 10 8 8 10 10 7 4 3 5 10 15 21 16 10 7 9 5 350 338 342 344 349 2 17 47
172 195 191 192 173 185 195 167 183 177 151 142 111 126 139 109 152 210 213 189 182 179 178 181 179 182 179 168 40 0 5 6 4 3 358 2 4 3 3 2 2 8 9 4 1 350 353 341 344 354 319 307 356 26
186 223 204 205 195 199 202 173 157 138 164 149 157 135 123 153 217 210 173 175 180 178 173 175 183 182 183 161 16 358 358 357 357 358 359 4 3 4 6 1 357 355 355 355 355 347 333 340 313 321 2 229 264 358
233 205 190 185 200 215 212 184 155 171 179 155 138 159 172 186 190 163 169 172 172 171 171 172 173 176 168 164 354 358 358 4 6 6 4 6 8 7 8 5 0 353 353 357 354 345 329 309 314 261 234 211 222 220
211 181 170 227 207 220 222 211 190 150 147 161 114 124 129 113 149 159 157 161 166 172 172 174 165 168 170 175 1 2 1 360 3 9 9 6 4 6 5 0 358 358 352 350 357 354 334 320 290 285 227 219 220 221
193 168 177 238 214 210 220 199 160 154 147 145 128 115 105 118 136 150 157 163 169 172 177 180 178 176 182 183 348 353 357 1 6 9 8 5 0 357 354 353 356 355 353 349 345 358 355 329 305 270 237 210 215 209
181 190 206 262 247 183 169 140 133 128 117 95 128 133 127 130 141 152 165 171 172 175 179 179 181 185 205 264 327 344 355 2 2 1 0 357 353 350 351 352 353 353 353 352 347 349 348 350 326 266 237 215 220 216
194 195 182 172 184 145 126 116 87 78 86 94 105 134 133 120 118 162 171 177 185 185 189 195 197 192 209 254 322 348 355 356 353 353 353 352 351 350 351 351 351 351 353 353 352 347 347 349 344 305 254 232 223 220
204 220 187 158 138 186 139 96 85 90 91 97 117 138 102 115 134 161 172 177 192 218 221 210 204 199 194 250 344 353 351 351 350 347 345 345 345 346 349 352 354 354 355 356 355 354 351 351 350 338 287 247 225 219
Wind_Speed_850mb
63 55 53 51 49 43 44 41 38 35 36 34 33 37 38 37 33 21 20 15 12 14 43 24 18 23 18 11 6 9 16 3 7 4 3 4 5 5 7 3 9 2 3 5 6 10 13 10 4 10 9 47 41 47
80 63 50 51 53 45 45 41 37 36 35 35 31 35 36 35 29 22 23 19 26 25 40 67 55 41 40 33 31 12 8 3 5 4 2 3 5 5 5 6 6 3 8 5 13 10 14 17 33 57 55 51 42 55
76 67 54 54 54 48 45 36 38 37 34 34 30 34 35 34 26 20 27 25 23 22 35 15 1 12 28 23 22 18 16 19 11 12 4 4 8 4 5 7 5 7 3 7 8 11 20 45 61 60 56 61 79 63
68 74 70 66 57 49 48 34 39 36 34 32 29 35 34 33 24 26 27 25 14 12 10 15 18 8 6 11 21 45 51 13 15 13 7 5 5 9 5 8 5 13 7 9 12 20 32 44 49 60 77 70 61 62
75 74 70 74 63 47 47 44 39 38 35 27 29 34 34 30 26 24 17 5 11 11 8 27 30 4 11 24 24 24 42 56 27 7 7 4 7 6 6 4 7 6 10 5 9 44 50 49 69 71 61 59 67 62
81 70 71 73 70 48 46 49 37 37 31 26 28 33 32 29 26 15 7 6 4 10 9 7 18 14 31 35 24 16 27 40 25 14 10 11 10 5 5 5 9 25 33 43 30 52 71 81 72 44 61 72 72 62
65 85 71 67 77 64 44 48 44 26 28 28 28 29 31 28 21 9 7 5 11 6 6 12 14 11 34 33 23 5 7 18 18 10 10 9 13 12 4 5 36 72 76 76 64 53 41 36 47 69 74 77 55 77
56 72 66 66 74 53 46 43 42 22 31 32 23 27 27 26 20 6 8 8 13 11 6 5 8 20 20 16 13 7 5 14 17 9 6 2 6 2 4 39 71 71 71 61 69 69 63 56 76 78 56 73 58 60
49 69 66 59 69 56 46 43 39 26 35 29 17 17 8 5 9 9 5 5 8 9 7 3 5 8 19 14 12 9 6 4 4 4 4 7 3 7 22 45 63 72 54 69 73 63 60 68 77 61 72 59 55 57
47 65 66 58 61 65 48 42 36 28 35 14 10 7 8 9 12 5 5 7 11 8 9 7 7 8 10 8 9 11 5 4 4 2 9 3 5 26 43 61 56 73 75 68 47 50 68 77 74 59 67 58 51 51
42 59 58 63 59 66 45 37 37 33 18 7 11 9 13 12 7 7 5 5 7 5 9 11 16 9 16 5 6 7 4 5 4 3 2 4 5 36 82 83 80 75 70 64 47 62 62 67 60 66 61 55 47 48
44 64 68 60 54 42 36 40 33 26 16 9 7 9 13 9 6 5 5 6 7 7 8 10 12 16 12 7 6 7 5 4 3 15 4 4 8 56 70 79 79 79 76 65 57 60 72 65 57 63 58 57 50 43
42 58 58 51 49 39 38 35 28 20 15 11 8 8 6 8 3 7 8 3 2 6 7 10 8 7 5 3 6 4 6 6 13 7 5 3 40 62 78 75 86 76 72 76 70 68 77 63 55 53 54 55 48 40
46 61 56 49 34 40 38 27 24 25 12 9 9 5 8 6 7 7 8 7 6 9 20 21 8 3 7 8 3 4 6 4 5 8 7 11 59 68 83 81 80 81 82 80 71 70 73 66 60 53 53 50 49 42
49 54 43 29 39 35 29 27 34 24 11 8 8 7 9 7 4 12 8 4 4 10 17 1 3 6 6 2 5 5 11 7 6 5 6 47 54 68 72 78 82 78 77 76 68 72 68 67 63 58 60 56 59 49
59 41 45 36 37 29 33 38 25 20 8 8 9 4 5 6 3 7 7 6 7 14 3 4 4 6 7 3 9 8 6 4 6 11 40 59 61 66 69 75 74 72 68 59 62 68 64 63 66 61 55 58 64 63
63 45 47 38 31 35 43 29 17 9 8 6 8 15 7 7 8 6 3 4 12 6 4 6 7 5 4 6 5 4 4 5 28 42 51 45 52 60 65 67 66 63 58 50 57 67 61 56 59 59 58 60 64 66
55 44 37 44 44 54 38 12 10 8 10 16 7 16 16 8 10 6 1 8 1 6 5 5 9 6 4 5 2 3 7 29 34 43 43 42 48 45 53 59 60 59 52 45 46 58 57 58 62 61 56 58 62 68
32 37 43 47 54 30 14 15 9 7 16 7 9 21 16 15 15 12 8 14 16 18 17 7 7 4 4 3 3 9 23 33 40 45 40 41 39 44 50 57 57 54 47 43 36 46 51 46 48 53 53 54 59 62
25 39 49 63 37 11 8 8 12 7 9 11 15 22 18 13 16 13 13 12 10 8 9 5 4 7 6 4 3 12 26 36 37 39 37 41 45 43 46 52 55 50 46 39 30 31 41 43 46 48 48 48 51 53
55 60 64 43 11 5 7 8 11 8 9 11 25 26 15 23 11 5 7 7 8 6 5 7 12 9 5 6 7 17 28 31 29 28 34 41 45 44 46 48 50 48 46 43 37 30 33 37 39 42 47 47 45 44
64 59 48 26 7 3 5 10 5 8 9 18 26 17 13 11 11 8 11 7 6 6 11 14 14 9 9 7 10 21 31 28 21 22 29 35 43 43 45 46 47 49 47 42 34 27 26 24 25 29 37 41 39 39
63 47 27 8 7 8 6 11 8 10 7 17 18 10 6 7 12 19 7 4 7 13 18 17 16 12 7 4 7 19 31 34 27 26 33 34 36 40 40 39 37 43 47 40 29 25 22 19 21 24 25 21 28 31
47 18 11 12 16 9 7 8 9 8 8 8 8 8 8 12 21 5 4 8 16 22 21 17 17 16 8 2 7 22 31 34 29 24 30 37 37 38 39 37 35 36 43 38 31 14 19 14 15 22 21 20 22 27
13 11 10 11 13 8 7 7 6 5 7 7 8 6 6 13 5 5 7 12 35 32 27 21 19 15 10 5 3 17 27 33 34 29 32 36 37 42 42 37 36 40 45 40 37 31 17 18 14 15 15 14 18 21
7 16 14 17 11 9 10 8 11 10 7 6 5 14 10 6 6 7 7 31 47 42 36 30 27 18 10 5 3 16 27 31 30 27 26 34 36 43 47 50 50 42 43 45 45 37 31 16 15 12 8 8 11 13
6 10 10 13 9 6 5 5 7 7 8 8 7 6 6 6 9 6 11 33 45 40 30 27 23 16 6 7 3 14 22 27 29 28 20 27 28 35 41 45 48 46 40 39 40 40 32 26 14 7 2 9 7 7
9 6 7 13 10 10 4 6 8 9 8 14 20 9 15 7 7 17 15 33 35 35 33 29 20 12 11 6 5 13 18 22 22 21 8 16 22 31 38 40 40 43 36 35 40 39 31 25 21 14 11 14 18 12
7 7 10 3 7 8 9 9 8 7 15 20 8 6 8 7 19 17 33 38 40 39 34 29 28 21 14 5 4 13 21 27 31 32 34 38 41 43 45 45 44 44 42 36 37 40 30 28 28 18 21 22 26 25
7 19 11 8 6 9 7 7 13 20 18 24 23 22 20 22 26 33 40 41 39 31 24 19 18 15 8 1 7 15 22 28 33 37 40 42 44 44 46 46 47 47 47 41 39 42 37 28 21 21 20 30 34 40
9 26 7 5 3 4 13 22 26 33 23 18 22 38 31 29 37 34 32 31 28 25 25 25 21 15 9 4 8 13 18 22 30 34 36 36 37 38 40 42 43 44 46 46 43 42 46 43 23 17 23 32 43 44
16 14 9 6 3 25 24 8 9 10 10 12 11 18 31 17 11 26 34 33 29 26 23 21 20 16 10 4 4 9 16 25 32 35 37 38 37 36 37 38 39 41 42 44 44 40 43 46 38 20 19 32 46 53
23 17 14 11 7 8 7 13 8 8 11 8 10 19 10 9 9 14 31 33 24 21 21 18 14 9 5 2 5 12 20 27 31 34 35 35 36 35 35 35 36 38 40 42 43 41 38 41 44 24 15 21 35 52
Wind_Direction_850mb
254 258 270 275 275 280 284 287 297 300 305 308 321 328 329 330 331 338 321 309 298 274 284 265 250 246 246 227 195 301 337 263 346 14 330 325 309 352 293 318 326 312 251 209 211 229 268 178 131 188 246 305 310 311
256 251 259 267 273 273 276 284 291 294 299 301 313 322 325 325 329 315 309 303 297 277 273 296 293 277 257 259 257 235 240 236 248 64 325 315 311 320 283 289 283 300 180 221 199 234 274 278 268 290 302 288 290 303
258 251 248 257 265 269 266 277 287 288 294 295 306 318 320 321 327 306 300 302 302 292 305 300 125 303 294 278 253 224 239 222 223 219 285 248 257 256 283 262 300 300 229 237 345 251 264 286 295 293 306 294 300 296
258 252 236 243 249 267 266 267 282 286 289 290 306 312 317 317 322 312 305 307 292 288 293 284 318 343 354 325 252 242 243 231 234 212 241 246 240 197 265 270 224 267 295 257 256 280 307 286 285 284 292 298 295 302
252 257 249 240 236 259 261 261 272 284 282 288 298 308 313 313 316 315 311 276 255 244 288 290 312 206 328 336 309 272 237 235 239 238 238 246 237 239 244 240 244 216 234 272 276 290 286 282 294 307 305 302 300 291
252 255 264 243 229 237 258 259 251 275 279 284 296 302 307 309 308 324 252 224 306 202 309 294 315 285 340 341 327 296 240 223 210 206 223 225 225 159 262 250 239 296 301 283 272 288 292 291 300 309 311 309 304 293
255 249 246 240 232 229 248 253 241 267 277 280 285 300 302 296 286 265 266 284 272 7 291 294 297 307 333 345 349 357 172 196 202 236 243 216 204 207 249 275 335 323 318 320 320 307 302 304 305 319 315 313 312 309
255 245 239 244 234 225 241 244 240 259 269 277 285 297 293 279 282 255 173 256 271 271 266 289 285 324 342 321 323 315 221 214 209 238 239 227 134 257 286 331 322 319 322 326 329 327 321 318 319 319 317 324 319 315
247 240 234 248 234 223 237 238 238 247 269 275 296 293 252 193 179 170 237 268 214 227 300 291 301 294 329 314 297 297 286 261 228 244 219 122 91 46 314 309 313 316 311 301 323 324 328 324 319 321 329 332 326 324
239 233 232 238 229 231 228 233 235 251 270 264 256 217 212 185 177 207 171 168 197 213 223 251 251 265 304 321 303 320 320 284 269 218 112 89 105 350 335 333 333 339 343 337 323 328 333 329 325 330 336 336 332 330
233 223 233 234 232 231 226 233 231 257 248 200 196 213 186 178 202 199 189 221 172 234 218 241 240 253 292 213 274 259 297 269 270 62 323 87 14 343 341 339 341 344 353 348 344 342 339 329 333 331 341 344 350 353
223 223 224 228 235 230 210 225 235 240 165 198 193 174 170 181 182 191 193 165 209 229 213 218 276 254 293 251 268 282 295 256 312 345 48 49 357 331 340 338 339 348 359 354 351 348 347 341 339 344 353 356 355 4
216 218 222 225 234 213 214 221 238 173 171 171 178 161 171 177 167 204 188 211 276 219 244 268 303 287 287 323 293 317 301 8 324 17 39 60 334 335 342 342 346 357 1 357 350 352 351 350 350 356 0 2 9 20
207 210 212 213 216 200 209 227 181 161 163 176 165 176 195 191 235 185 170 189 221 251 296 307 281 327 2 2 320 323 343 325 51 27 357 342 332 339 337 342 346 347 351 356 351 355 357 3 4 8 15 23 33 22
195 204 201 201 195 212 208 195 157 172 167 182 178 215 204 225 161 153 174 217 254 304 330 88 72 51 14 7 11 12 16 34 35 359 289 322 334 333 334 340 343 348 350 357 354 360 5 11 19 15 24 34 41 44
192 177 186 196 196 193 189 150 167 166 191 200 220 234 186 120 113 171 211 276 329 336 15 64 79 61 18 40 46 24 73 3 296 314 322 328 331 334 337 342 347 349 355 4 1 3 11 16 21 27 31 33 42 48
175 177 192 181 181 178 144 151 154 187 190 214 237 207 176 141 161 167 259 332 324 345 89 78 65 57 28 55 52 75 162 245 324 323 327 326 329 337 338 347 355 358 1 9 3 6 13 20 29 34 38 40 47 50
184 193 190 178 178 147 154 149 163 188 231 224 207 186 186 167 141 129 107 340 13 105 96 111 124 65 91 138 234 278 333 333 337 332 331 332 335 346 347 353 359 1 6 10 6 6 13 21 27 31 35 43 46 50
188 184 180 179 154 135 151 183 186 224 224 205 193 148 136 126 118 123 89 73 102 106 114 80 76 126 200 133 72 343 342 345 332 338 346 343 352 354 352 358 2 5 8 14 7 15 14 25 30 28 33 38 46 47
171 164 168 144 140 126 139 168 195 233 198 184 167 155 135 135 130 110 92 138 128 82 65 66 136 150 136 106 6 349 351 340 336 333 337 341 357 357 359 360 1 4 6 10 12 18 24 25 29 28 31 37 42 46
150 143 144 155 132 115 177 178 195 213 168 159 157 139 127 141 143 124 95 87 79 72 111 132 132 127 91 78 28 4 345 347 344 339 341 339 349 352 360 360 1 10 11 8 6 17 26 24 24 27 31 36 39 45
144 149 159 155 128 266 250 206 211 177 171 155 145 138 141 160 153 143 128 71 93 126 141 152 151 150 111 75 33 2 358 358 355 355 360 356 358 2 2 2 1 9 13 13 18 15 20 13 16 18 23 31 35 43
142 144 140 121 196 222 254 190 195 186 144 173 144 111 131 132 150 147 84 114 141 148 146 146 154 160 129 59 333 359 7 11 13 9 358 356 11 10 8 10 10 8 6 15 20 23 6 6 2 7 9 18 32 51
134 137 154 191 210 213 192 199 193 175 133 147 152 128 139 137 151 111 139 188 167 161 162 163 170 158 153 294 346 8 11 14 16 11 3 1 8 8 5 11 17 13 8 10 17 6 340 356 3 2 11 14 29 45
124 182 188 205 200 184 194 175 182 167 167 169 140 133 151 148 111 166 188 196 177 175 172 168 170 174 188 217 347 10 8 8 10 10 7 4 3 5 10 15 21 16 10 7 9 5 350 338 342 344 349 2 17 47
172 195 191 192 173 185 195 167 183 177 151 142 111 126 139 109 152 210 213 189 182 179 178 181 179 182 179 168 40 0 5 6 4 3 358 2 4 3 3 2 2 8 9 4 1 350 353 341 344 354 319 307 356 26
186 223 204 205 195 199 202 173 157 138 164 149 157 135 123 153 217 210 173 175 180 178 173 175 183 182 183 161 16 358 358 357 357 358 359 4 3 4 6 1 357 355 355 355 355 347 333 340 313 321 2 229 264 358
233 205 190 185 200 215 212 184 155 171 179 155 138 159 172 186 190 163 169 172 172 171 171 172 173 176 168 164 354 358 358 4 6 6 4 6 8 7 8 5 0 353 353 357 354 345 329 309 314 261 234 211 222 220
211 181 170 227 207 220 222 211 190 150 147 161 114 124 129 113 149 159 157 161 166 172 172 174 165 168 170 175 1 2 1 360 3 9 9 6 4 6 5 0 358 358 352 350 357 354 334 320 290 285 227 219 220 221
193 168 177 238 214 210 220 199 160 154 147 145 128 115 105 118 136 150 157 163 169 172 177 180 178 176 182 183 348 353 357 1 6 9 8 5 0 357 354 353 356 355 353 349 345 358 355 329 305 270 237 210 215 209
181 190 206 262 247 183 169 140 133 128 117 95 128 133 127 130 141 152 165 171 172 175 179 179 181 185 205 264 327 344 355 2 2 1 0 357 353 350 351 352 353 353 353 352 347 349 348 350 326 266 237 215 220 216
194 195 182 172 184 145 126 116 87 78 86 94 105 134 133 120 118 162 171 177 185 185 189 195 197 192 209 254 322 348 355 356 353 353 353 352 351 350 351 351 351 351 353 353 352 347 347 349 344 305 254 232 223 220
204 220 187 158 138 186 139 96 85 90 91 97 117 138 102 115 134 161 172 177 192 218 221 210 204 199 194 250 344 353 351 351 350 347 345 345 345 346 349 352 354 354 355 356 355 354 351 351 350 338 287 247 225 219